JAL916 ROAH-RJTT

Flight info

Callsign JAL916
Flight time N/A
Altitude 41000
Route AMAMI Y574 SHIBK Y57 SUKBO Y571 BILLY Y21 AKSEL
Aircraft A359/H-SDE2E3GHIJ1J3J4J5LM1ORWXY/LB1D1

Departure

Time 2026-04-23 18:37
Airport Naha International Airport (ROAH)

Arrival

Time N/A
Airport Tokyo Haneda International Airport (RJTT)
Time Latitude Longitude Altitude Speed Heading
2026-04-23 18:08 26.20416 127.64932 28 ft 0 kts 28°
2026-04-23 18:23 26.20428 127.64939 28 ft 4 kts 30°
2026-04-23 18:24 26.20380 127.64916 27 ft 4 kts 352°
2026-04-23 18:24 26.20361 127.64928 27 ft 4 kts 289°
2026-04-23 18:24 26.20358 127.64940 27 ft 3 kts 267°
2026-04-23 18:25 26.20358 127.64924 26 ft 0 kts 267°
2026-04-23 18:29 26.20356 127.64889 28 ft 7 kts 266°
2026-04-23 18:29 26.20353 127.64836 28 ft 7 kts 264°
2026-04-23 18:29 26.20325 127.64785 28 ft 11 kts 213°
2026-04-23 18:29 26.20233 127.64772 28 ft 14 kts 180°
2026-04-23 18:30 26.20141 127.64776 28 ft 12 kts 177°
2026-04-23 18:30 26.20066 127.64779 28 ft 10 kts 178°
2026-04-23 18:30 26.20001 127.64782 28 ft 9 kts 178°
2026-04-23 18:30 26.19939 127.64785 28 ft 9 kts 177°
2026-04-23 18:31 26.19871 127.64789 28 ft 13 kts 176°
2026-04-23 18:31 26.19758 127.64793 28 ft 18 kts 177°
2026-04-23 18:31 26.19634 127.64799 28 ft 18 kts 178°
2026-04-23 18:31 26.19506 127.64805 28 ft 19 kts 178°
2026-04-23 18:32 26.19374 127.64811 28 ft 19 kts 177°
2026-04-23 18:32 26.19285 127.64815 29 ft 19 kts 178°
2026-04-23 18:32 26.19149 127.64822 29 ft 19 kts 177°
2026-04-23 18:32 26.19017 127.64828 29 ft 18 kts 178°
2026-04-23 18:33 26.18892 127.64834 29 ft 17 kts 178°
2026-04-23 18:33 26.18785 127.64839 29 ft 14 kts 178°
2026-04-23 18:33 26.18682 127.64844 29 ft 15 kts 178°
2026-04-23 18:33 26.18575 127.64849 29 ft 15 kts 178°
2026-04-23 18:34 26.18470 127.64854 29 ft 15 kts 177°
2026-04-23 18:34 26.18371 127.64859 29 ft 9 kts 178°
2026-04-23 18:34 26.18343 127.64860 29 ft 5 kts 178°
2026-04-23 18:34 26.18305 127.64861 29 ft 6 kts 181°
2026-04-23 18:35 26.18263 127.64840 29 ft 7 kts 222°
2026-04-23 18:35 26.18246 127.64787 28 ft 8 kts 266°
2026-04-23 18:35 26.18244 127.64720 28 ft 8 kts 274°
2026-04-23 18:35 26.18252 127.64675 27 ft 2 kts 307°
2026-04-23 18:36 26.18256 127.64670 27 ft 1 kts 310°
2026-04-23 18:36 26.18322 127.64653 28 ft 19 kts 358°
2026-04-23 18:36 26.18652 127.64637 29 ft 89 kts 357°
2026-04-23 18:36 26.19575 127.64592 28 ft 174 kts 355°
2026-04-23 18:37 26.20865 127.64519 817 ft 187 kts 353°
2026-04-23 18:37 26.22215 127.64453 1785 ft 205 kts 353°
2026-04-23 18:37 26.23681 127.64388 2411 ft 217 kts 353°
2026-04-23 18:37 26.25200 127.64114 2841 ft 224 kts 334°
2026-04-23 18:38 26.26629 127.63329 3272 ft 238 kts 325°
2026-04-23 18:38 26.28128 127.62383 3687 ft 255 kts 325°
2026-04-23 18:38 26.29683 127.61413 4320 ft 263 kts 325°
2026-04-23 18:38 26.31328 127.60398 4992 ft 270 kts 326°
2026-04-23 18:39 26.32978 127.59383 5728 ft 272 kts 325°
2026-04-23 18:39 26.34651 127.58361 6490 ft 275 kts 325°
2026-04-23 18:39 26.36327 127.57337 7281 ft 276 kts 326°
2026-04-23 18:39 26.38016 127.56304 8126 ft 277 kts 326°
2026-04-23 18:40 26.39703 127.55263 8983 ft 278 kts 324°
2026-04-23 18:40 26.41211 127.53950 9831 ft 272 kts 307°
2026-04-23 18:40 26.42157 127.52144 10425 ft 275 kts 285°
2026-04-23 18:40 26.42355 127.49982 10759 ft 290 kts 262°
2026-04-23 18:41 26.41652 127.47810 11067 ft 311 kts 239°
2026-04-23 18:41 26.40046 127.46100 11411 ft 333 kts 213°
2026-04-23 18:41 26.37917 127.44959 11903 ft 342 kts 212°
2026-04-23 18:41 26.36078 127.43309 12493 ft 341 kts 227°
2026-04-23 18:42 26.34110 127.41765 13074 ft 353 kts 210°
2026-04-23 18:42 26.31722 127.40976 13689 ft 365 kts 191°
2026-04-23 18:42 26.29189 127.40865 14233 ft 373 kts 184°
2026-04-23 18:42 26.26574 127.40903 14781 ft 376 kts 184°
2026-04-23 18:43 26.23942 127.40947 15353 ft 379 kts 184°
2026-04-23 18:43 26.21288 127.40985 15922 ft 383 kts 184°
2026-04-23 18:43 26.18599 127.41017 16449 ft 388 kts 184°
2026-04-23 18:43 26.15894 127.41048 17014 ft 391 kts 184°
2026-04-23 18:44 26.13167 127.41101 17563 ft 395 kts 182°
2026-04-23 18:44 26.10412 127.41548 18074 ft 405 kts 169°
2026-04-23 18:44 26.07772 127.42754 18516 ft 417 kts 154°
2026-04-23 18:44 26.05444 127.44741 18950 ft 429 kts 139°
2026-04-23 18:45 26.03630 127.47415 19358 ft 440 kts 122°
2026-04-23 18:45 26.02517 127.50605 19800 ft 448 kts 105°
2026-04-23 18:45 26.02229 127.54058 20224 ft 454 kts 88°
2026-04-23 18:45 26.02827 127.57514 20637 ft 457 kts 70°
2026-04-23 18:46 26.04281 127.60653 21066 ft 457 kts 52°
2026-04-23 18:46 26.06307 127.63383 21506 ft 459 kts 45°
2026-04-23 18:46 26.08453 127.66043 21931 ft 462 kts 45°
2026-04-23 18:46 26.10559 127.68706 22357 ft 467 kts 48°
2026-04-23 18:47 26.12307 127.71785 22778 ft 474 kts 65°
2026-04-23 18:47 26.13294 127.75290 23219 ft 478 kts 78°
2026-04-23 18:47 26.13951 127.78933 23613 ft 481 kts 79°
2026-04-23 18:47 26.14591 127.82607 23987 ft 484 kts 79°
2026-04-23 18:48 26.15246 127.86310 24344 ft 488 kts 79°
2026-04-23 18:48 26.16035 127.89998 24697 ft 491 kts 72°
2026-04-23 18:48 26.17391 127.93499 25084 ft 493 kts 58°
2026-04-23 18:48 26.19378 127.96601 25503 ft 491 kts 45°
2026-04-23 18:49 26.21917 127.99185 25957 ft 487 kts 32°
2026-04-23 18:49 26.24664 128.01317 26359 ft 488 kts 29°
2026-04-23 18:49 26.27533 128.03360 26793 ft 490 kts 27°
2026-04-23 18:49 26.30459 128.05367 27143 ft 495 kts 26°
2026-04-23 18:50 26.32444 128.06715 27414 ft 497 kts 26°
2026-04-23 18:50 26.36377 128.09399 27996 ft 501 kts 27°
2026-04-23 18:50 26.39385 128.11473 28405 ft 504 kts 27°
2026-04-23 18:50 26.42332 128.13524 28818 ft 507 kts 27°
2026-04-23 18:51 26.45328 128.15620 29212 ft 510 kts 27°
2026-04-23 18:51 26.48354 128.17746 29606 ft 514 kts 27°
2026-04-23 18:51 26.51394 128.19883 29900 ft 518 kts 27°
2026-04-23 18:51 26.54454 128.22037 30253 ft 521 kts 27°
2026-04-23 18:52 26.57546 128.24215 30585 ft 523 kts 27°
2026-04-23 18:52 26.60623 128.26383 30899 ft 525 kts 26°
2026-04-23 18:52 26.63730 128.28572 31206 ft 528 kts 26°
2026-04-23 18:52 26.66846 128.30769 31512 ft 530 kts 26°
2026-04-23 18:53 26.69966 128.32970 31774 ft 533 kts 26°
2026-04-23 18:53 26.73116 128.35187 32046 ft 535 kts 24°
2026-04-23 18:53 26.76296 128.37373 32309 ft 537 kts 24°
2026-04-23 18:53 26.79499 128.39560 32546 ft 539 kts 24°
2026-04-23 18:54 26.82697 128.41761 32794 ft 541 kts 24°
2026-04-23 18:54 26.85906 128.43994 33056 ft 543 kts 24°
2026-04-23 18:54 26.89104 128.46241 33388 ft 543 kts 24°
2026-04-23 18:54 26.92303 128.48503 33713 ft 543 kts 24°
2026-04-23 18:55 26.95460 128.50743 34024 ft 542 kts 24°
2026-04-23 18:55 26.98654 128.53013 34338 ft 541 kts 24°
2026-04-23 18:55 27.01825 128.55268 34630 ft 540 kts 23°
2026-04-23 18:55 27.04996 128.57522 34939 ft 538 kts 23°
2026-04-23 18:56 27.07134 128.59043 35160 ft 538 kts 22°
2026-04-23 18:56 27.11328 128.62022 35494 ft 538 kts 22°
2026-04-23 18:56 27.14484 128.64268 35767 ft 537 kts 22°
2026-04-23 18:56 27.17634 128.66512 36026 ft 535 kts 22°
2026-04-23 18:57 27.20774 128.68753 36343 ft 533 kts 22°
2026-04-23 18:57 27.23896 128.70984 36608 ft 532 kts 22°
2026-04-23 18:57 27.27029 128.73222 36848 ft 533 kts 21°
2026-04-23 18:57 27.30168 128.75462 36974 ft 535 kts 21°
2026-04-23 18:58 27.33315 128.77712 37208 ft 534 kts 21°
2026-04-23 18:58 27.36459 128.79964 37444 ft 533 kts 21°
2026-04-23 18:58 27.39582 128.82204 37668 ft 533 kts 21°
2026-04-23 18:58 27.42706 128.84445 37861 ft 532 kts 21°
2026-04-23 18:59 27.45839 128.86694 38071 ft 532 kts 21°
2026-04-23 18:59 27.48935 128.88916 38218 ft 533 kts 20°
2026-04-23 18:59 27.52072 128.91170 38417 ft 531 kts 21°
2026-04-23 18:59 27.55192 128.93414 38607 ft 530 kts 21°
2026-04-23 19:00 27.58267 128.95627 38760 ft 530 kts 21°
2026-04-23 19:00 27.64486 129.00102 38813 ft 530 kts 21°
2026-04-23 19:01 27.70711 129.04590 38816 ft 530 kts 21°
2026-04-23 19:01 27.76927 129.09076 38815 ft 530 kts 21°
2026-04-23 19:02 27.82093 129.12808 38831 ft 530 kts 21°
2026-04-23 19:02 27.88312 129.17306 38815 ft 530 kts 21°
2026-04-23 19:03 27.94542 129.21820 38811 ft 531 kts 21°
2026-04-23 19:03 28.00729 129.26308 38837 ft 531 kts 21°
2026-04-23 19:04 28.06948 129.30826 38809 ft 531 kts 21°
2026-04-23 19:04 28.13182 129.35361 38785 ft 532 kts 21°
2026-04-23 19:05 28.19408 129.39896 38824 ft 531 kts 21°
2026-04-23 19:05 28.25642 129.44443 38800 ft 532 kts 21°
2026-04-23 19:06 28.31854 129.48979 38791 ft 533 kts 21°
2026-04-23 19:06 28.38024 129.53714 38793 ft 544 kts 28°
2026-04-23 19:06 28.40801 129.56735 38773 ft 560 kts 40°
2026-04-23 19:07 28.43116 129.60357 38771 ft 573 kts 52°
2026-04-23 19:07 28.44807 129.64508 38773 ft 583 kts 66°
2026-04-23 19:07 28.45770 129.69022 38784 ft 589 kts 77°
2026-04-23 19:08 28.46883 129.78235 38774 ft 588 kts 80°
2026-04-23 19:08 28.47788 129.87474 38804 ft 587 kts 80°
2026-04-23 19:09 28.48717 129.96699 38778 ft 587 kts 80°
2026-04-23 19:09 28.49690 130.05910 38778 ft 587 kts 80°
2026-04-23 19:10 28.51538 130.14874 38788 ft 573 kts 60°
2026-04-23 19:10 28.55479 130.22575 38785 ft 563 kts 48°
2026-04-23 19:11 28.59933 130.29932 38787 ft 564 kts 46°
2026-04-23 19:11 28.64447 130.37266 38786 ft 565 kts 47°
2026-04-23 19:12 28.68184 130.43403 38786 ft 565 kts 47°
2026-04-23 19:12 28.73374 130.52010 38788 ft 566 kts 47°
2026-04-23 19:13 28.77815 130.59410 38779 ft 566 kts 47°
2026-04-23 19:13 28.82270 130.66820 38776 ft 566 kts 47°
2026-04-23 19:14 28.86723 130.74235 38784 ft 566 kts 47°
2026-04-23 19:14 28.91175 130.81666 38776 ft 567 kts 47°
2026-04-23 19:15 28.95624 130.89108 38771 ft 567 kts 47°
2026-04-23 19:15 29.00067 130.96556 38791 ft 567 kts 47°
2026-04-23 19:16 29.04520 131.04032 38779 ft 568 kts 47°
2026-04-23 19:16 29.08970 131.11514 38777 ft 568 kts 47°
2026-04-23 19:17 29.15595 131.22682 38772 ft 566 kts 47°
2026-04-23 19:17 29.20011 131.30144 38772 ft 566 kts 47°
2026-04-23 19:18 29.24433 131.37628 38767 ft 566 kts 47°
2026-04-23 19:18 29.28839 131.45098 38772 ft 566 kts 47°
2026-04-23 19:19 29.35450 131.56330 38739 ft 566 kts 47°
2026-04-23 19:20 29.42006 131.67517 38765 ft 565 kts 48°
2026-04-23 19:20 29.46405 131.75029 38764 ft 566 kts 48°
2026-04-23 19:21 29.52978 131.86286 38766 ft 565 kts 48°
2026-04-23 19:22 29.57355 131.93800 38758 ft 566 kts 48°
2026-04-23 19:22 29.63913 132.05087 38756 ft 565 kts 49°
2026-04-23 19:23 29.68638 132.12249 38759 ft 559 kts 42°
2026-04-23 19:24 29.76036 132.22642 38745 ft 560 kts 42°
2026-04-23 19:24 29.83435 132.33013 38754 ft 561 kts 42°
2026-04-23 19:25 29.93317 132.46946 38757 ft 560 kts 43°
2026-04-23 19:26 30.00718 132.57417 38752 ft 561 kts 43°
2026-04-23 19:27 30.13031 132.74896 38752 ft 563 kts 43°
2026-04-23 19:28 30.22926 132.88999 38750 ft 564 kts 43°
2026-04-23 19:29 30.30341 132.99599 38748 ft 565 kts 43°
2026-04-23 19:30 30.37777 133.10258 38741 ft 566 kts 43°
2026-04-23 19:31 30.45202 133.20930 38741 ft 566 kts 43°
2026-04-23 19:31 30.50144 133.28049 38737 ft 566 kts 43°
2026-04-23 19:32 30.55080 133.35173 38738 ft 566 kts 43°
2026-04-23 19:32 30.59976 133.42252 38744 ft 566 kts 43°
2026-04-23 19:33 30.64897 133.49379 38740 ft 565 kts 44°
2026-04-23 19:33 30.72278 133.60094 38746 ft 565 kts 43°
2026-04-23 19:34 30.76368 133.66043 38723 ft 565 kts 44°
2026-04-23 19:35 30.83719 133.76765 38765 ft 565 kts 44°
2026-04-23 19:35 30.88626 133.83931 38721 ft 565 kts 44°
2026-04-23 19:36 30.93527 133.91093 38727 ft 565 kts 44°
2026-04-23 19:36 30.98420 133.98261 38717 ft 565 kts 44°
2026-04-23 19:37 31.03313 134.05445 38717 ft 565 kts 44°
2026-04-23 19:37 31.08199 134.12632 38719 ft 565 kts 44°
2026-04-23 19:38 31.13090 134.19839 38719 ft 565 kts 44°
2026-04-23 19:38 31.17946 134.27008 38712 ft 565 kts 44°
2026-04-23 19:39 31.22827 134.34228 38719 ft 565 kts 44°
2026-04-23 19:39 31.27696 134.41443 38718 ft 565 kts 44°
2026-04-23 19:40 31.32565 134.48673 38719 ft 564 kts 44°
2026-04-23 19:40 31.37422 134.55897 38713 ft 565 kts 44°
2026-04-23 19:41 31.42287 134.63144 38705 ft 565 kts 44°
2026-04-23 19:41 31.47139 134.70389 38722 ft 565 kts 44°
2026-04-23 19:42 31.52000 134.77660 38710 ft 566 kts 44°
2026-04-23 19:42 31.56853 134.84932 38713 ft 566 kts 44°
2026-04-23 19:43 31.61685 134.92189 38708 ft 566 kts 44°
2026-04-23 19:43 31.66535 134.99483 38706 ft 566 kts 44°
2026-04-23 19:44 31.71376 135.06780 38706 ft 566 kts 44°
2026-04-23 19:44 31.76403 135.13855 38709 ft 560 kts 39°
2026-04-23 19:45 31.81708 135.20546 38708 ft 559 kts 38°
2026-04-23 19:45 31.87007 135.27267 38704 ft 560 kts 39°
2026-04-23 19:46 31.92262 135.34084 38704 ft 561 kts 39°
2026-04-23 19:46 31.97461 135.40900 38706 ft 561 kts 40°
2026-04-23 19:47 32.02668 135.47743 38703 ft 561 kts 40°
2026-04-23 19:47 32.07877 135.54595 38700 ft 561 kts 40°
2026-04-23 19:48 32.13092 135.61462 38700 ft 562 kts 40°
2026-04-23 19:48 32.18315 135.68351 38699 ft 562 kts 40°
2026-04-23 19:49 32.23523 135.75235 38700 ft 563 kts 40°
2026-04-23 19:49 32.28740 135.82144 38695 ft 564 kts 40°
2026-04-23 19:50 32.33971 135.89084 38694 ft 565 kts 40°
2026-04-23 19:50 32.39212 135.96052 38697 ft 565 kts 40°
2026-04-23 19:51 32.44449 136.03024 38695 ft 567 kts 40°
2026-04-23 19:51 32.49659 136.09962 38690 ft 567 kts 41°
2026-04-23 19:52 32.54914 136.16981 38702 ft 567 kts 41°
2026-04-23 19:52 32.60161 136.23999 38689 ft 568 kts 41°
2026-04-23 19:53 32.65404 136.31025 38682 ft 569 kts 41°
2026-04-23 19:53 32.70655 136.38077 38687 ft 569 kts 41°
2026-04-23 19:54 32.75898 136.45130 38681 ft 569 kts 41°
2026-04-23 19:54 32.81108 136.52153 38673 ft 569 kts 41°
2026-04-23 19:55 32.86365 136.59252 38676 ft 569 kts 41°
2026-04-23 19:55 32.91562 136.66285 38673 ft 568 kts 41°
2026-04-23 19:56 32.96794 136.73372 38668 ft 568 kts 41°
2026-04-23 19:56 33.02018 136.80454 38667 ft 569 kts 41°
2026-04-23 19:57 33.07238 136.87545 38670 ft 570 kts 41°
2026-04-23 19:57 33.12469 136.94669 38670 ft 570 kts 41°
2026-04-23 19:58 33.17702 137.01808 38673 ft 570 kts 42°
2026-04-23 19:58 33.22925 137.08949 38662 ft 572 kts 42°
2026-04-23 19:59 33.28154 137.16123 38668 ft 572 kts 42°
2026-04-23 19:59 33.33362 137.23272 38668 ft 573 kts 42°
2026-04-23 20:00 33.38599 137.30473 38664 ft 573 kts 42°
2026-04-23 20:00 33.43837 137.37694 38668 ft 573 kts 42°
2026-04-23 20:01 33.49070 137.44923 38664 ft 574 kts 42°
2026-04-23 20:01 33.54292 137.52151 38672 ft 574 kts 42°
2026-04-23 20:02 33.59481 137.59364 38672 ft 575 kts 43°
2026-04-23 20:02 33.61846 137.63347 38680 ft 583 kts 54°
2026-04-23 20:02 33.63887 137.67493 38687 ft 585 kts 56°
2026-04-23 20:03 33.67864 137.76041 38681 ft 584 kts 57°
2026-04-23 20:03 33.71744 137.84620 38688 ft 583 kts 57°
2026-04-23 20:04 33.75626 137.93192 38697 ft 583 kts 57°
2026-04-23 20:04 33.79491 138.01697 38711 ft 583 kts 57°
2026-04-23 20:05 33.82750 138.08870 38716 ft 583 kts 57°
2026-04-23 20:05 33.87270 138.18843 38722 ft 583 kts 57°
2026-04-23 20:06 33.91148 138.27424 38732 ft 583 kts 58°
2026-04-23 20:06 33.94996 138.36024 38738 ft 583 kts 58°
2026-04-23 20:07 33.98821 138.44636 38755 ft 583 kts 58°
2026-04-23 20:07 34.02640 138.53254 38751 ft 583 kts 58°
2026-04-23 20:08 34.05817 138.60432 38759 ft 583 kts 58°
2026-04-23 20:08 34.09633 138.69069 38764 ft 583 kts 58°
2026-04-23 20:09 34.13448 138.77726 38771 ft 584 kts 58°
2026-04-23 20:09 34.17268 138.86418 38787 ft 585 kts 58°
2026-04-23 20:10 34.21075 138.95102 38793 ft 585 kts 58°
2026-04-23 20:10 34.24872 139.03794 38799 ft 585 kts 59°
2026-04-23 20:11 34.28624 139.12533 38849 ft 588 kts 63°
2026-04-23 20:11 34.30282 139.17059 39001 ft 588 kts 64°
2026-04-23 20:11 34.31876 139.21602 39174 ft 587 kts 65°
2026-04-23 20:11 34.33440 139.26158 39343 ft 586 kts 65°
2026-04-23 20:12 34.34994 139.30727 39449 ft 586 kts 65°
2026-04-23 20:12 34.36543 139.35285 39611 ft 586 kts 65°
2026-04-23 20:12 34.38094 139.39840 39753 ft 585 kts 65°
2026-04-23 20:12 34.39647 139.44388 39905 ft 585 kts 65°
2026-04-23 20:13 34.41207 139.48950 40010 ft 585 kts 65°
2026-04-23 20:13 34.42763 139.53501 40135 ft 585 kts 64°
2026-04-23 20:13 34.44323 139.58066 40299 ft 584 kts 64°
2026-04-23 20:13 34.45870 139.62602 40427 ft 583 kts 64°
2026-04-23 20:14 34.47434 139.67148 40535 ft 583 kts 63°
2026-04-23 20:14 34.49503 139.71327 40681 ft 573 kts 45°
2026-04-23 20:14 34.52287 139.74687 40715 ft 559 kts 28°
2026-04-23 20:14 34.55526 139.77155 40795 ft 547 kts 18°
2026-04-23 20:15 34.58858 139.79389 40815 ft 547 kts 19°
2026-04-23 20:15 34.65455 139.84000 40833 ft 550 kts 21°
2026-04-23 20:15 34.68907 139.85944 40849 ft 527 kts
2026-04-23 20:16 34.72412 139.86747 40831 ft 503 kts 352°
2026-04-23 20:16 34.79396 139.87443 40839 ft 506 kts 353°
2026-04-23 20:17 34.86400 139.88307 40849 ft 511 kts 354°
2026-04-23 20:17 34.93506 139.89273 40856 ft 511 kts 353°
2026-04-23 20:17 34.97045 139.90039 40863 ft 522 kts
2026-04-23 20:18 35.00587 139.91044 40873 ft 523 kts
2026-04-23 20:18 35.07671 139.93077 40878 ft 522 kts
2026-04-23 20:19 35.14750 139.95089 40877 ft 522 kts
2026-04-23 20:19 35.21830 139.97097 40908 ft 522 kts
2026-04-23 20:19 35.25369 139.97882 40904 ft 505 kts 349°
2026-04-23 20:20 35.28726 139.97547 40891 ft 474 kts 333°
2026-04-23 20:20 35.31693 139.96122 40892 ft 444 kts 316°
2026-04-23 20:20 35.34105 139.93907 40892 ft 432 kts 308°
2026-04-23 20:21 35.38960 139.89370 40911 ft 445 kts 314°
2026-04-23 20:21 35.44255 139.85247 40921 ft 454 kts 317°
2026-04-23 20:22 35.49715 139.81272 40907 ft 456 kts 317°
2026-04-23 20:22 35.55250 139.77379 40860 ft 463 kts 322°
2026-04-23 20:23 35.60831 139.73787 40882 ft 434 kts 305°
2026-04-23 20:23 35.62623 139.70947 40891 ft 409 kts 288°
2026-04-23 20:23 35.63481 139.67721 40939 ft 393 kts 271°
2026-04-23 20:23 35.63361 139.64408 40942 ft 387 kts 253°
2026-04-23 20:24 35.62282 139.61378 40927 ft 390 kts 236°
2026-04-23 20:24 35.60365 139.58980 40932 ft 403 kts 219°
2026-04-23 20:24 35.57786 139.57472 40933 ft 423 kts 202°
2026-04-23 20:24 35.54785 139.57057 40941 ft 447 kts 185°
2026-04-23 20:25 35.51648 139.57840 40934 ft 474 kts 168°
2026-04-23 20:25 35.48669 139.59816 40927 ft 500 kts 151°
2026-04-23 20:25 35.46136 139.62862 40924 ft 523 kts 134°
2026-04-23 20:26 35.42100 139.70357 40865 ft 529 kts 133°
2026-04-23 20:26 35.39672 139.73658 40918 ft 510 kts 148°
2026-04-23 20:26 35.36820 139.76133 40921 ft 494 kts 160°
2026-04-23 20:27 35.30627 139.79414 40906 ft 481 kts 171°
2026-04-23 20:27 35.24211 139.81654 40894 ft 476 kts 175°
2026-04-23 20:28 35.17760 139.83526 40889 ft 474 kts 176°
2026-04-23 20:28 35.11328 139.85271 40849 ft 473 kts 177°
2026-04-23 20:29 35.04921 139.86971 40878 ft 473 kts 177°
2026-04-23 20:29 34.98477 139.88668 40865 ft 473 kts 177°
2026-04-23 20:30 34.92014 139.90237 40816 ft 455 kts 187°
2026-04-23 20:30 34.86290 139.88885 40849 ft 397 kts 216°
2026-04-23 20:30 34.84128 139.86935 40851 ft 380 kts 231°
2026-04-23 20:31 34.82626 139.84349 40853 ft 371 kts 246°
2026-04-23 20:31 34.81896 139.81357 40852 ft 370 kts 261°
2026-04-23 20:31 34.81997 139.78204 40853 ft 378 kts 276°
2026-04-23 20:31 34.82703 139.75139 40859 ft 382 kts 280°
2026-04-23 20:32 34.83729 139.68930 40868 ft 367 kts 263°